• In Hungary
  • List of Countries
  • For 7 days
  • Water Temperature
  • Satellite Maps
  • Weather Map
  • News
  • Weather Widgets
  • user-avatar
    Login

    Hourly Weather Prokopivka

    Today, 17 October, Wednesday

    Time Temperature Precipitation Wind Pressure Humidity
    00:00 +16°C° 0 mm 1 mps 758 mmHg 67%
    01:00 +15°C° 0 mm 0 mps 758 mmHg 68%
    02:00 +14°C° 0 mm 0 mps 758 mmHg 70%
    03:00 +14°C° 0 mm 0 mps 758 mmHg 71%
    04:00 +14°C° 0 mm 0 mps 758 mmHg 72%
    05:00 +13°C° 0 mm 0 mps 758 mmHg 74%
    06:00 +13°C° 0 mm 0 mps 757 mmHg 75%
    07:00 +15°C° 0 mm 1 mps 758 mmHg 70%
    08:00 +16°C° 0 mm 1 mps 758 mmHg 66%
    09:00 +19°C° 0 mm 1 mps 758 mmHg 61%
    10:00 +20°C° 0 mm 1 mps 758 mmHg 56%
    11:00 +22°C° 0 mm 1 mps 758 mmHg 50%
    12:00 +23°C° 0 mm 2 mps 758 mmHg 44%
    13:00 +24°C° 0 mm 2 mps 757 mmHg 42%
    14:00 +24°C° 0 mm 2 mps 757 mmHg 39%
    15:00 +25°C° 0 mm 2 mps 757 mmHg 37%
    16:00 +24°C° 0 mm 2 mps 757 mmHg 41%
    17:00 +21°C° 0 mm 2 mps 756 mmHg 45%
    18:00 +19°C° 0 mm 2 mps 756 mmHg 49%
    19:00 +19°C° 0 mm 2 mps 756 mmHg 51%
    20:00 +18°C° 0 mm 2 mps 756 mmHg 53%
    21:00 +17°C° 0 mm 2 mps 757 mmHg 55%
    22:00 +17°C° 0 mm 2 mps 756 mmHg 58%
    23:00 +16°C° 0 mm 2 mps 756 mmHg 60%

    Tomorrow, 18 October, Thursday

    Time Temperature Precipitation Wind Pressure Humidity
    00:00 +16°C° 0 mm 2 mps 756 mmHg 62%
    01:00 +15°C° 0 mm 2 mps 756 mmHg 64%
    02:00 +15°C° 0 mm 2 mps 757 mmHg 66%
    03:00 +14°C° 0 mm 2 mps 757 mmHg 68%
    04:00 +14°C° 0 mm 2 mps 756 mmHg 70%
    05:00 +14°C° 0 mm 2 mps 756 mmHg 72%
    06:00 +13°C° 0 mm 2 mps 756 mmHg 74%
    07:00 +14°C° 0 mm 2 mps 756 mmHg 71%
    08:00 +15°C° 0 mm 2 mps 756 mmHg 67%
    09:00 +16°C° 0 mm 2 mps 756 mmHg 64%
    10:00 +18°C° 0 mm 2 mps 756 mmHg 57%
    11:00 +20°C° 0 mm 3 mps 756 mmHg 50%
    12:00 +21°C° 0 mm 3 mps 756 mmHg 43%
    13:00 +22°C° 0 mm 3 mps 755 mmHg 40%
    14:00 +24°C° 0 mm 3 mps 755 mmHg 37%
    15:00 +24°C° 0 mm 3 mps 755 mmHg 34%
    16:00 +22°C° 0 mm 3 mps 755 mmHg 38%
    17:00 +20°C° 0 mm 3 mps 754 mmHg 42%
    18:00 +18°C° 0 mm 3 mps 754 mmHg 45%
    19:00 +18°C° 0 mm 3 mps 754 mmHg 47%
    20:00 +17°C° 0 mm 3 mps 754 mmHg 48%
    21:00 +16°C° 0 mm 3 mps 754 mmHg 50%
    22:00 +14°C° 0 mm 3 mps 754 mmHg 51%
    23:00 +14°C° 0 mm 3 mps 754 mmHg 52%

    Day after tomorrow, 19 October, Friday

    Time Temperature Precipitation Wind Pressure Humidity
    00:00 +13°C° 0 mm 3 mps 754 mmHg 53%
    01:00 +14°C° 0 mm 2 mps 754 mmHg 55%
    02:00 +13°C° 0 mm 2 mps 754 mmHg 57%
    03:00 +13°C° 0 mm 2 mps 754 mmHg 59%
    04:00 +13°C° 0 mm 2 mps 753 mmHg 61%
    05:00 +12°C° 0 mm 2 mps 753 mmHg 63%
    06:00 +12°C° 0 mm 2 mps 753 mmHg 65%
    07:00 +12°C° 0 mm 3 mps 753 mmHg 62%
    08:00 +13°C° 0 mm 3 mps 753 mmHg 59%
    09:00 +14°C° 0 mm 3 mps 753 mmHg 56%
    10:00 +17°C° 0 mm 3 mps 753 mmHg 51%
    11:00 +19°C° 0 mm 3 mps 752 mmHg 46%
    12:00 +21°C° 0 mm 4 mps 752 mmHg 41%
    13:00 +21°C° 0 mm 4 mps 752 mmHg 40%
    14:00 +21°C° 0 mm 3 mps 751 mmHg 38%
    15:00 +22°C° 0 mm 3 mps 751 mmHg 37%
    16:00 +20°C° 0 mm 3 mps 750 mmHg 42%
    17:00 +19°C° 0 mm 3 mps 750 mmHg 46%
    18:00 +17°C° 0 mm 2 mps 750 mmHg 51%
    19:00 +16°C° 0 mm 2 mps 750 mmHg 53%
    20:00 +16°C° 0 mm 2 mps 750 mmHg 55%
    21:00 +15°C° 0 mm 2 mps 750 mmHg 58%
    22:00 +15°C° 0 mm 2 mps 750 mmHg 59%
    23:00 +15°C° 0 mm 2 mps 750 mmHg 60%

    20 October, Saturday

    Time Temperature Precipitation Wind Pressure Humidity
    00:00 +14°C° 0 mm 2 mps 749 mmHg 61%
    01:00 +14°C° 0 mm 2 mps 749 mmHg 63%
    02:00 +14°C° 0 mm 2 mps 749 mmHg 65%
    03:00 +13°C° 0 mm 1 mps 749 mmHg 67%
    04:00 +13°C° 0 mm 2 mps 749 mmHg 70%
    05:00 +13°C° 0 mm 2 mps 749 mmHg 72%
    06:00 +12°C° 0 mm 2 mps 749 mmHg 74%
    07:00 +13°C° 0 mm 2 mps 749 mmHg 72%
    08:00 +14°C° 0 mm 2 mps 749 mmHg 71%
    09:00 +14°C° 0 mm 2 mps 749 mmHg 69%
    10:00 +15°C° 0 mm 2 mps 749 mmHg 66%
    11:00 +17°C° 0 mm 3 mps 750 mmHg 62%
    12:00 +18°C° 0 mm 3 mps 750 mmHg 59%
    13:00 +18°C° 0 mm 3 mps 750 mmHg 57%
    14:00 +19°C° 0 mm 3 mps 750 mmHg 55%
    15:00 +20°C° 0 mm 3 mps 750 mmHg 53%
    16:00 +18°C° 0 mm 3 mps 750 mmHg 57%
    17:00 +17°C° 0 mm 3 mps 750 mmHg 60%
    18:00 +16°C° 0 mm 3 mps 750 mmHg 64%
    19:00 +14°C° 0 mm 3 mps 750 mmHg 66%
    20:00 +14°C° 0 mm 3 mps 750 mmHg 67%
    21:00 +13°C° 0 mm 3 mps 750 mmHg 69%
    22:00 +13°C° 0 mm 3 mps 750 mmHg 72%
    23:00 +12°C° 0 mm 3 mps 750 mmHg 76%

    21 October, Sunday

    Time Temperature Precipitation Wind Pressure Humidity
    00:00 +12°C° 0 mm 3 mps 750 mmHg 79%
    01:00 +12°C° 0 mm 3 mps 750 mmHg 81%
    02:00 +11°C° 0 mm 3 mps 750 mmHg 83%
    03:00 +11°C° 0 mm 3 mps 750 mmHg 85%
    04:00 +11°C° 0 mm 3 mps 750 mmHg 85%
    05:00 +10°C° 0 mm 3 mps 750 mmHg 85%
    06:00 +10°C° 0 mm 3 mps 750 mmHg 85%
    07:00 +10°C° 0 mm 3 mps 750 mmHg 81%
    08:00 +11°C° 0 mm 4 mps 750 mmHg 77%
    09:00 +11°C° 0 mm 4 mps 751 mmHg 74%
    10:00 +13°C° 0 mm 4 mps 750 mmHg 68%
    11:00 +14°C° 0 mm 4 mps 750 mmHg 62%
    12:00 +15°C° 0 mm 4 mps 750 mmHg 57%
    13:00 +15°C° 0 mm 4 mps 750 mmHg 56%
    14:00 +16°C° 0 mm 5 mps 750 mmHg 55%
    15:00 +16°C° 0 mm 5 mps 750 mmHg 53%
    16:00 +15°C° 0 mm 5 mps 750 mmHg 56%
    17:00 +14°C° 0 mm 4 mps 750 mmHg 59%
    18:00 +13°C° 0 mm 4 mps 750 mmHg 62%
    19:00 +12°C° 0 mm 4 mps 751 mmHg 62%
    20:00 +12°C° 0 mm 4 mps 751 mmHg 62%
    21:00 +10°C° 0 mm 5 mps 751 mmHg 62%
    22:00 +10°C° 0 mm 5 mps 751 mmHg 62%
    23:00 +9°C° 0 mm 5 mps 751 mmHg 63%

    22 October, Monday

    Time Temperature Precipitation Wind Pressure Humidity
    00:00 +9°C° 0 mm 5 mps 751 mmHg 63%
    01:00 +8°C° 0 mm 5 mps 752 mmHg 65%
    02:00 +8°C° 0 mm 4 mps 752 mmHg 67%
    03:00 +8°C° 0 mm 4 mps 752 mmHg 68%
    04:00 +7°C° 0 mm 4 mps 752 mmHg 71%
    05:00 +7°C° 0 mm 4 mps 752 mmHg 73%
    06:00 +6°C° 0 mm 4 mps 752 mmHg 75%
    07:00 +7°C° 0 mm 4 mps 752 mmHg 73%
    08:00 +7°C° 0 mm 4 mps 752 mmHg 71%
    09:00 +8°C° 0 mm 4 mps 752 mmHg 70%
    10:00 +10°C° 0 mm 4 mps 752 mmHg 66%
    11:00 +12°C° 0 mm 4 mps 752 mmHg 63%
    12:00 +14°C° 0 mm 3 mps 752 mmHg 59%
    13:00 +14°C° 0 mm 3 mps 752 mmHg 59%
    14:00 +14°C° 0 mm 3 mps 752 mmHg 59%
    15:00 +16°C° 0 mm 3 mps 751 mmHg 59%
    16:00 +15°C° 0 mm 2 mps 751 mmHg 62%
    17:00 +14°C° 0 mm 2 mps 751 mmHg 65%
    18:00 +13°C° 0 mm 2 mps 751 mmHg 67%
    19:00 +13°C° 0 mm 2 mps 751 mmHg 69%
    20:00 +12°C° 0 mm 2 mps 751 mmHg 71%
    21:00 +12°C° 0 mm 1 mps 751 mmHg 72%
    22:00 +12°C° 0 mm 1 mps 751 mmHg 73%
    23:00 +12°C° 0 mm 1 mps 751 mmHg 73%
    Show more